Location: LDNL
(36.4545°S, 141.6685°E)
Time: 12:44:51
(UTC+10:00)

Explorer 7 - Pass Details

Date: 19 August 2022
Orbit: 482 x 668 km, 50.3° (Epoch: 26 September)

Event Time Altitude Azimuth Distance (km) Brightness Sun altitude
Rises 16:13:22 0° 297° (WNW) 2,994 12.2 19.2°
Reaches altitude 10° 16:15:45 10° 292° (WNW) 2,096 11.9 18.8°
Maximum altitude 16:20:31 54° 214° (SW) 819 8.0 18.0°
Drops below altitude 10° 16:25:19 10° 136° (SE) 2,103 9.3 17.2°
Sets 16:27:43 0° 131° (SE) 3,004 10.0 16.8°
